Wind_Speed
81 81 81 81 81 82 83 83 83 85 85 87 89 91 93 91 86 83 79 76 72 69 65 60 57 56 55 54 53 53 52 52 52 52 52 51 49 48 46 45 43 42 40 39 39 39 39 39 40 41 40 38 35 31 28 27 26 27 29 30 29 28
80 80 81 81 82 83 84 83 83 84 85 87 88 89 90 87 83 79 76 72 68 64 61 57 55 54 53 52 51 51 51 51 50 49 46 43 40 38 37 38 38 39 38 37 37 37 38 40 42 41 40 37 35 31 29 28 27 28 30 30 30 28
78 78 79 80 80 81 82 82 81 82 83 84 84 84 84 82 79 75 72 69 65 61 58 56 54 53 53 52 50 49 49 49 47 43 40 38 36 35 36 37 37 38 37 36 36 37 39 41 41 40 38 37 35 32 30 30 30 30 31 32 31 29
75 75 75 76 76 76 77 78 78 78 79 79 79 79 78 77 75 72 70 67 64 60 58 56 55 54 53 51 49 48 48 46 43 39 37 36 34 35 36 37 37 36 36 36 37 38 40 40 40 39 39 38 36 35 33 32 32 33 34 33 32 30
71 70 70 71 71 71 73 74 74 75 75 75 76 75 75 74 73 71 68 65 63 61 59 57 55 53 52 51 49 48 47 43 40 38 38 37 36 37 37 37 36 36 36 36 38 40 41 41 41 41 41 41 39 38 36 36 35 35 35 35 33 31
66 65 65 67 68 68 70 71 72 72 73 73 73 72 72 72 71 70 67 65 63 61 60 58 56 54 53 50 49 48 45 41 40 40 40 41 41 40 39 38 37 37 37 37 39 41 42 43 43 44 44 43 42 41 39 39 38 37 36 35 34 31
64 63 63 65 67 67 68 69 69 70 71 71 71 70 71 71 70 68 66 64 62 61 61 59 57 55 53 50 48 46 42 39 38 39 41 43 45 42 41 40 40 39 39 40 41 42 44 45 46 46 46 45 45 44 43 41 40 38 36 35 33 31
63 62 62 64 65 66 67 67 67 67 68 69 69 70 70 69 68 66 64 63 62 62 61 59 56 55 53 51 48 44 40 38 36 38 39 40 43 44 44 44 42 42 43 43 44 46 47 48 48 47 47 47 47 47 45 44 41 38 36 34 33 31
60 59 60 62 63 64 65 65 65 66 66 67 67 68 67 67 67 65 64 62 61 61 59 57 55 54 53 51 49 46 44 42 40 41 41 40 43 44 45 45 45 46 48 50 51 51 51 49 48 48 47 48 48 48 46 44 41 38 36 35 33 31
55 56 58 60 61 62 62 62 63 63 63 63 64 64 64 65 65 64 63 62 61 60 59 57 55 54 53 52 51 50 49 46 44 45 49 51 49 47 48 50 52 54 55 56 56 55 53 51 49 48 47 47 47 47 45 43 40 37 37 36 33 31
52 53 55 57 58 59 59 60 60 60 60 60 60 61 61 62 62 62 62 61 60 59 58 56 55 54 54 53 53 52 50 48 45 44 51 56 55 54 57 59 60 59 56 53 53 53 52 50 48 47 46 46 46 45 44 41 39 38 37 35 32 31
50 51 52 53 55 56 56 57 57 57 57 57 57 58 59 60 60 60 59 59 58 57 57 56 56 54 54 53 52 51 50 49 46 45 49 54 57 58 59 57 54 51 49 48 48 48 48 47 46 45 45 45 45 45 43 40 39 39 37 35 33 32
48 51 52 51 51 52 53 53 52 52 53 54 54 55 56 57 57 56 56 55 55 55 54 53 53 52 50 50 49 48 48 48 48 47 48 50 50 49 48 46 44 44 45 46 46 45 46 46 46 46 45 45 44 43 41 39 39 40 39 37 35 34
48 50 51 50 49 49 50 49 49 51 53 54 54 53 52 52 53 52 52 51 50 50 49 48 48 47 45 44 44 43 42 41 40 39 38 38 39 39 40 41 44 46 46 46 45 45 46 47 47 46 44 43 41 39 38 38 38 39 39 38 37 37
47 49 49 48 48 48 47 46 49 53 53 52 51 48 48 48 47 46 44 43 43 43 42 42 41 40 39 37 36 35 34 32 31 31 33 35 37 38 41 44 46 47 47 46 46 46 46 46 46 44 41 40 38 36 35 36 37 38 39 39 39 38
40 43 45 46 46 46 46 47 48 51 50 48 46 45 43 41 39 37 35 35 35 35 34 33 33 33 32 30 30 30 30 30 31 33 36 38 40 41 43 45 46 45 46 46 46 46 46 44 42 40 38 37 36 35 35 36 37 39 40 40 40 39
37 40 41 42 43 43 43 44 45 45 44 42 41 40 37 35 33 32 31 31 31 31 30 29 29 28 27 26 27 29 29 31 33 35 37 40 42 44 45 45 44 44 43 44 44 44 43 40 39 37 35 35 34 34 35 35 37 39 40 41 41 40
45 44 42 42 41 40 39 40 40 40 39 37 35 34 33 32 32 31 30 30 30 29 28 27 25 24 24 25 27 29 31 32 34 36 39 42 44 44 44 44 43 42 41 41 41 40 39 37 36 34 33 32 32 33 34 35 37 39 39 40 41 41
49 46 45 44 42 40 39 37 36 35 34 33 31 30 30 30 30 30 30 29 27 26 25 24 23 23 24 26 28 30 32 34 36 39 41 43 43 43 43 42 41 39 38 37 37 36 34 33 33 33 32 31 31 32 34 35 37 38 39 40 41 41
52 49 46 45 43 41 38 35 33 32 30 28 27 26 26 26 26 26 26 25 24 23 22 22 23 25 26 29 30 32 34 36 38 40 42 42 42 42 42 40 38 36 35 34 33 32 29 30 32 32 33 33 33 34 36 37 38 38 39 40 41 41
55 51 47 44 42 39 35 30 26 23 22 21 21 21 22 22 22 22 22 22 23 23 23 24 26 28 30 32 34 36 37 39 41 42 42 43 43 42 41 38 36 33 32 30 29 28 26 27 29 30 33 36 36 37 38 39 41 41 41 42 42 42
55 52 47 43 39 36 34 31 26 21 18 18 20 21 22 22 22 22 23 25 26 27 28 29 30 32 34 35 37 39 41 42 43 44 44 44 43 42 40 37 34 32 30 28 26 26 25 25 27 29 32 37 38 39 39 40 41 42 42 43 43 43
55 52 49 45 40 36 34 33 31 28 24 22 23 24 26 28 29 30 31 32 33 33 34 34 35 37 38 39 40 41 43 44 45 45 45 44 43 42 40 37 34 31 29 27 25 25 23 24 27 29 31 35 37 38 39 39 39 40 42 42 43 43
55 53 51 47 44 40 35 34 34 32 30 27 27 30 32 34 36 37 38 39 39 39 39 39 40 41 41 42 43 44 45 45 45 45 45 44 42 41 39 36 33 30 28 26 25 24 23 23 24 26 29 32 34 35 38 40 41 42 42 42 42 43
54 53 51 48 45 43 40 38 37 36 34 33 34 37 38 40 42 42 43 43 43 44 44 44 44 44 44 45 45 46 46 46 45 45 44 43 42 41 39 36 33 30 28 26 24 24 24 23 24 26 27 30 32 32 35 39 41 44 45 44 43 44
50 50 50 48 46 45 45 44 42 41 40 39 41 42 43 44 46 46 47 47 47 47 46 47 47 46 46 46 47 47 47 46 46 45 43 42 41 40 38 36 33 30 28 26 24 23 23 23 25 26 27 29 32 33 35 38 41 44 46 47 47 47
47 47 47 47 46 46 48 48 47 46 45 44 45 46 46 47 49 50 50 50 50 49 48 48 48 46 46 47 48 48 48 48 47 46 44 42 39 38 37 36 33 30 28 25 24 23 22 23 23 25 26 28 31 34 36 38 40 43 45 46 47 48
44 45 45 45 45 46 48 51 52 52 51 50 49 50 50 51 53 54 54 53 52 50 49 49 48 48 47 48 48 48 48 48 48 47 45 42 38 36 35 34 32 29 28 25 23 22 22 22 22 23 24 25 26 28 30 32 34 36 39 41 43 44
42 43 44 45 45 45 46 49 53 56 57 57 56 55 55 55 57 58 58 57 54 52 51 50 50 49 49 48 48 48 48 48 47 45 43 41 38 35 34 32 30 28 27 26 24 23 22 21 21 22 22 23 23 24 24 26 28 30 32 34 36 38
41 42 42 44 45 47 48 48 50 53 57 59 60 61 61 60 61 61 60 58 56 53 52 51 51 50 49 48 48 48 48 46 44 42 40 38 36 34 33 30 28 27 27 26 25 24 22 22 21 21 22 22 22 22 23 23 24 26 27 28 30 31
34 34 35 39 42 44 47 49 51 52 54 56 58 60 61 61 61 61 59 58 57 55 54 53 52 51 50 49 48 47 46 44 41 39 37 35 34 33 31 29 27 26 26 26 26 25 24 23 22 21 21 22 22 22 23 23 23 24 25 25 26 27
34 34 37 41 43 43 45 47 50 52 54 55 56 57 59 59 60 60 59 58 57 56 55 53 52 51 50 49 48 46 43 40 38 36 34 33 32 31 29 27 26 26 26 26 27 26 25 24 23 22 22 21 22 22 22 23 23 23 24 24 25 25
38 38 41 43 45 46 47 47 48 51 54 56 57 58 59 59 59 59 58 57 56 54 53 52 51 51 49 48 46 44 40 36 34 34 33 33 32 30 28 26 25 25 25 26 26 27 27 26 25 24 23 22 22 22 22 22 22 23 23 23 24 24
33 34 37 42 45 46 46 46 47 49 52 54 56 57 58 58 58 57 55 54 53 52 51 50 50 49 48 46 43 41 38 34 33 33 33 32 32 30 29 27 25 25 24 24 25 26 27 28 28 27 26 24 23 23 23 23 22 22 23 23 24 24
29 32 37 42 45 46 46 45 44 45 47 49 52 53 53 53 53 52 50 49 49 48 47 48 48 47 46 45 43 41 39 36 34 33 32 32 32 31 30 28 26 26 25 25 25 26 27 28 29 30 29 28 27 25 25 24 24 24 24 24 24 24
27 32 36 40 43 45 46 46 46 46 46 47 48 50 50 50 49 48 47 47 46 45 45 45 45 45 45 44 44 43 42 40 39 37 36 35 34 32 31 29 28 27 27 27 27 28 28 29 29 30 31 32 31 29 28 27 26 26 25 25 25 26
30 32 34 37 40 43 44 45 47 47 48 48 49 49 48 49 49 49 48 46 45 44 43 43 43 43 43 43 44 44 44 43 43 42 41 40 38 36 34 32 30 30 30 31 32 33 33 33 33 33 33 33 33 33 32 30 29 28 27 27 27 27
Wind_Direction
285 285 284 284 284 283 282 282 282 282 283 282 282 282 283 286 288 289 289 289 289 289 289 288 287 286 284 283 282 282 282 282 283 283 284 284 284 284 283 282 282 283 284 285 285 285 287 291 297 299 299 300 301 299 294 291 287 282 280 283 288 293
284 284 283 283 283 282 282 282 281 281 280 280 280 281 283 285 286 287 287 287 287 287 287 287 286 284 283 283 283 283 284 285 285 286 286 285 284 282 280 279 279 280 281 282 282 284 289 293 296 297 297 297 298 295 290 284 280 277 278 280 283 288
283 283 282 282 281 281 281 281 280 279 279 279 280 281 282 284 285 285 286 286 286 286 286 285 284 284 284 284 284 285 286 288 288 287 285 282 279 277 275 274 275 276 277 279 281 285 291 294 295 295 293 292 293 290 286 280 276 274 275 277 279 283
282 281 281 280 280 280 280 279 278 277 277 278 279 279 281 282 283 284 284 284 285 285 285 284 284 284 284 285 286 286 288 289 290 288 282 277 272 270 269 270 272 273 275 279 283 288 291 293 294 292 289 288 289 287 284 280 276 274 274 275 275 278
281 280 280 279 278 277 276 276 275 275 276 276 277 278 279 280 281 281 282 283 283 284 284 284 284 284 284 285 286 287 289 290 290 286 280 272 266 265 266 268 269 270 274 279 285 289 290 291 293 292 290 289 288 287 283 280 277 276 275 273 271 274
281 280 279 278 276 274 273 273 273 274 274 274 275 276 276 277 278 279 280 281 281 282 282 283 283 283 284 285 286 287 289 289 288 284 280 275 269 266 266 266 267 268 272 277 285 290 289 290 292 291 290 289 287 285 282 279 278 276 274 272 269 271
281 279 277 275 274 273 272 271 271 272 272 273 273 273 273 274 275 277 278 279 279 280 280 281 282 282 282 283 284 286 287 286 284 283 280 276 271 266 266 266 266 268 272 276 283 289 290 289 290 289 289 287 285 284 281 279 277 276 273 270 269 269
279 278 276 274 273 272 272 271 270 270 270 270 271 271 272 273 275 276 276 277 278 278 278 279 279 279 280 281 282 282 281 278 277 277 277 277 273 267 267 267 268 273 276 278 281 286 290 290 289 288 287 284 282 281 279 277 275 273 271 269 268 268
278 277 276 274 273 272 271 270 269 268 268 269 270 271 272 273 274 275 275 276 276 276 276 276 276 277 278 279 279 278 275 273 271 270 269 272 274 271 270 270 274 279 281 281 281 285 289 290 289 287 284 281 279 277 274 272 270 269 268 268 269 267
278 278 276 274 273 271 270 270 269 268 268 269 270 270 271 272 272 273 274 274 274 274 274 275 275 276 277 277 277 276 274 272 270 267 264 265 271 275 277 277 280 283 283 283 284 285 288 288 287 285 281 278 274 270 268 266 266 265 266 267 268 264
279 278 276 275 273 272 272 271 271 270 269 269 270 270 270 271 271 271 272 272 273 274 275 276 276 276 276 276 276 276 275 272 269 266 263 263 267 273 278 280 282 283 284 285 286 286 286 285 283 280 277 272 267 263 262 262 262 262 264 266 264 261
280 278 276 275 274 274 273 273 272 271 270 270 270 269 269 268 269 269 270 272 273 274 275 276 276 276 276 276 276 276 276 275 272 268 264 264 267 272 277 280 282 284 286 287 286 285 284 283 280 277 272 267 262 259 258 258 258 258 262 264 260 258
282 280 278 277 276 275 273 272 271 270 269 268 266 266 266 267 268 269 271 272 273 274 275 275 276 277 277 277 278 278 277 276 276 275 272 272 275 277 280 283 286 288 289 288 286 285 284 282 279 275 270 265 260 258 256 254 254 257 260 261 256 256
283 281 278 277 276 274 273 272 270 267 265 264 263 264 265 267 269 271 273 274 275 276 276 277 278 278 279 279 280 280 279 279 279 281 280 281 283 285 288 290 292 293 291 289 288 286 284 281 278 274 269 264 259 256 253 251 253 256 258 258 255 255
279 279 277 275 274 272 270 269 267 266 265 265 266 267 266 267 269 271 274 275 276 276 276 278 279 280 281 282 281 281 281 282 283 284 286 288 290 292 294 296 296 295 292 290 288 285 282 279 277 273 267 262 257 251 248 248 250 253 255 255 253 254
280 280 278 275 273 273 272 271 269 269 269 269 269 269 269 270 271 271 273 273 273 274 276 278 279 281 283 283 280 281 284 285 286 288 291 293 295 296 298 298 297 294 291 289 286 283 281 278 275 270 263 258 253 248 244 244 247 250 252 252 251 252
284 285 282 278 277 278 278 276 274 272 271 270 269 269 271 271 272 272 272 273 275 277 279 280 281 281 281 279 278 282 285 287 290 293 295 296 297 298 299 299 296 293 290 287 284 281 279 276 272 267 259 254 249 245 243 243 245 247 249 250 250 250
280 284 284 283 283 282 280 277 274 271 270 269 269 269 270 272 274 275 275 275 277 278 279 279 278 276 274 274 277 282 286 289 292 294 296 297 298 300 301 299 296 292 289 285 283 280 277 274 269 263 257 250 246 244 244 244 246 248 248 249 250 251
275 279 281 283 284 282 279 275 271 269 267 267 268 270 274 276 277 277 276 274 273 274 274 272 270 269 271 275 279 283 287 290 292 294 297 299 301 302 302 300 296 291 288 285 282 278 277 275 268 261 256 249 243 244 245 246 247 249 250 250 252 254
271 275 278 280 282 281 279 274 271 269 268 269 271 274 276 275 274 272 271 269 267 266 266 267 269 272 275 279 282 285 287 290 293 296 299 302 304 304 303 300 295 291 287 285 281 277 275 272 267 263 258 250 243 242 244 245 247 248 251 253 255 258
270 273 276 278 279 278 275 271 268 268 269 271 271 271 271 269 267 266 267 267 266 266 267 270 274 277 278 280 283 285 288 291 294 297 301 304 307 306 304 300 295 291 287 284 281 276 268 262 261 260 257 252 245 242 242 244 246 247 249 252 255 257
268 270 272 274 274 273 270 263 254 248 250 259 265 269 274 275 273 273 274 274 274 274 275 276 278 280 282 284 285 288 290 292 295 298 302 306 307 307 304 300 295 291 288 284 276 269 260 254 252 249 250 251 248 245 244 246 248 249 250 250 251 252
269 271 271 271 269 266 264 259 251 243 242 249 261 269 278 283 282 281 282 282 281 282 282 282 283 284 286 288 290 292 294 296 298 301 304 307 308 307 304 300 295 291 288 284 276 267 257 250 250 248 246 248 248 245 244 244 247 249 249 248 248 248
270 271 272 271 268 262 255 250 247 245 245 251 261 269 276 281 283 283 284 285 285 286 286 285 286 287 289 290 292 294 296 298 300 303 305 307 307 306 303 299 295 291 288 284 279 271 259 247 246 248 245 244 246 248 245 242 243 244 244 244 244 245
268 269 270 270 268 261 252 245 245 245 248 254 261 267 273 277 281 283 285 286 287 288 288 287 289 290 291 292 293 296 297 298 300 302 305 306 306 304 301 297 294 291 288 284 279 273 264 250 240 238 239 240 241 244 245 242 240 241 241 241 241 241
269 269 268 267 265 261 254 248 246 246 248 254 259 263 269 274 278 282 284 286 287 288 289 289 290 291 291 292 294 295 296 297 299 301 302 303 302 301 299 296 292 288 286 283 280 275 267 259 248 240 238 236 235 237 242 243 242 243 244 244 243 242
271 271 270 267 263 260 255 251 249 249 250 254 257 260 265 270 274 278 283 285 287 288 288 288 289 289 290 292 293 294 295 296 297 298 299 299 298 297 296 294 290 286 283 281 279 277 271 265 258 250 245 241 239 241 244 246 247 247 248 248 248 247
271 272 272 271 268 263 259 254 252 253 255 257 258 260 263 267 271 275 280 283 285 286 287 287 287 287 288 290 291 292 293 295 296 297 297 296 294 293 292 290 288 284 281 279 278 277 274 271 266 260 255 251 248 247 248 248 249 249 249 249 249 249
267 269 271 272 272 269 264 260 257 257 257 258 259 260 263 265 268 273 277 280 282 284 284 284 285 286 287 287 288 289 291 293 294 294 294 293 292 290 288 286 283 281 280 279 279 277 276 274 271 267 263 260 257 254 252 251 251 250 250 250 250 250
268 268 269 270 270 269 268 266 265 263 261 261 260 261 262 264 267 271 275 277 279 280 281 282 282 283 284 284 286 287 289 291 291 291 291 290 290 289 288 285 282 279 277 277 278 278 277 275 274 271 268 264 261 259 257 256 256 255 254 253 252 251
267 265 268 272 272 271 271 270 268 267 266 265 264 263 263 264 266 269 271 274 276 277 278 279 279 280 280 281 282 284 286 288 288 288 288 287 287 287 287 285 283 281 279 277 276 276 276 276 275 273 270 267 264 262 260 259 259 259 259 258 255 253
263 263 269 276 278 277 276 275 270 267 267 267 267 267 266 266 266 267 268 271 273 274 275 276 277 277 278 278 279 281 282 284 284 284 283 283 283 284 284 283 283 282 281 279 278 277 276 276 275 274 272 270 267 264 262 260 259 260 261 261 260 257
264 266 269 274 279 279 278 278 273 269 269 269 270 270 270 270 269 269 269 270 271 273 274 274 275 275 276 276 277 277 278 278 279 279 279 280 280 281 281 281 282 282 282 281 280 279 278 277 275 274 274 272 269 266 263 260 258 258 258 259 261 260
265 268 269 272 278 279 278 277 275 272 271 271 271 272 273 272 272 271 271 270 271 272 273 274 274 274 274 274 274 273 273 272 273 273 275 276 278 279 280 280 282 283 283 284 283 282 281 279 277 275 274 272 271 268 265 261 258 255 254 254 256 257
271 273 272 272 276 277 276 276 275 274 273 272 272 272 273 273 273 273 273 272 271 272 273 273 273 272 271 270 269 268 267 267 267 269 271 273 275 277 278 279 281 283 285 286 288 288 287 284 281 279 276 273 271 269 267 265 262 258 255 253 252 252
272 272 271 271 273 273 272 271 271 273 273 273 272 272 273 274 275 275 275 274 272 272 272 272 272 271 270 269 266 265 264 263 264 265 267 270 272 274 275 276 278 281 284 286 289 291 291 289 287 283 279 276 273 271 269 267 265 262 260 257 254 252
262 265 268 270 274 274 272 269 269 270 270 270 270 271 272 274 276 277 277 276 274 273 272 271 271 272 271 269 266 264 263 263 264 265 267 268 269 271 272 272 275 278 281 284 286 289 290 290 289 287 283 279 275 272 271 269 268 266 264 262 259 256
Height
10756 10754 10753 10752 10751 10749 10746 10746 10745 10743 10741 10737 10734 10729 10727 10730 10734 10736 10738 10739 10740 10741 10742 10742 10743 10744 10744 10745 10745 10745 10745 10745 10744 10744 10743 10743 10744 10746 10748 10749 10750 10751 10751 10751 10750 10749 10747 10745 10744 10743 10743 10745 10746 10748 10749 10749 10750 10751 10750 10750 10750 10750
10749 10747 10744 10743 10742 10740 10738 10737 10738 10736 10733 10729 10727 10724 10722 10724 10727 10729 10731 10732 10733 10734 10735 10735 10736 10738 10739 10739 10740 10740 10741 10740 10740 10739 10739 10739 10740 10741 10743 10744 10745 10746 10746 10746 10746 10744 10742 10740 10739 10738 10738 10739 10741 10743 10744 10744 10745 10746 10746 10747 10747 10747
10741 10739 10736 10734 10733 10731 10729 10728 10728 10727 10724 10721 10720 10719 10718 10719 10721 10722 10723 10725 10726 10727 10728 10729 10731 10732 10733 10735 10736 10736 10736 10736 10735 10735 10735 10736 10736 10737 10738 10740 10741 10741 10742 10742 10742 10740 10738 10736 10735 10734 10733 10734 10736 10738 10739 10740 10741 10742 10742 10743 10743 10743
10731 10730 10728 10726 10726 10724 10722 10720 10718 10718 10716 10715 10714 10714 10713 10714 10714 10715 10717 10718 10719 10720 10722 10723 10725 10727 10728 10730 10731 10732 10732 10732 10731 10732 10732 10732 10732 10732 10733 10735 10736 10737 10737 10738 10737 10736 10735 10732 10731 10729 10728 10729 10731 10733 10734 10735 10736 10737 10738 10739 10739 10740
10721 10721 10720 10719 10719 10718 10715 10711 10710 10710 10710 10709 10708 10708 10708 10708 10708 10709 10710 10711 10712 10713 10716 10717 10720 10722 10724 10725 10727 10727 10728 10729 10728 10728 10728 10728 10728 10728 10728 10729 10730 10732 10733 10733 10733 10732 10731 10729 10727 10725 10724 10723 10725 10727 10729 10730 10731 10732 10734 10735 10735 10736
10711 10713 10713 10711 10710 10710 10707 10704 10704 10703 10703 10703 10703 10703 10702 10702 10702 10702 10704 10706 10706 10708 10710 10712 10714 10717 10719 10721 10722 10722 10724 10725 10725 10725 10724 10724 10723 10723 10723 10724 10725 10726 10728 10728 10729 10728 10727 10726 10724 10721 10719 10718 10719 10721 10723 10725 10726 10728 10729 10730 10731 10733
10701 10703 10704 10702 10701 10700 10699 10698 10698 10697 10696 10696 10697 10697 10696 10696 10696 10697 10699 10700 10701 10703 10705 10707 10709 10711 10714 10716 10718 10719 10720 10720 10721 10721 10720 10719 10718 10718 10718 10718 10719 10720 10722 10723 10724 10724 10723 10722 10720 10718 10715 10713 10713 10715 10717 10719 10720 10722 10724 10726 10727 10729
10691 10693 10694 10693 10692 10691 10691 10691 10691 10691 10690 10690 10690 10690 10690 10690 10691 10692 10694 10695 10696 10698 10700 10702 10703 10706 10708 10710 10713 10715 10715 10715 10717 10717 10715 10713 10711 10711 10712 10712 10713 10715 10716 10717 10718 10719 10718 10717 10716 10714 10711 10709 10708 10708 10710 10712 10714 10717 10719 10721 10723 10724
10683 10684 10684 10684 10684 10683 10684 10684 10685 10685 10685 10685 10685 10685 10685 10685 10685 10686 10688 10689 10691 10692 10693 10695 10697 10700 10702 10704 10707 10709 10710 10711 10714 10713 10711 10707 10704 10705 10706 10707 10708 10709 10710 10711 10712 10714 10713 10712 10710 10709 10706 10704 10703 10703 10704 10706 10709 10712 10714 10716 10718 10720
10676 10676 10675 10675 10675 10676 10676 10678 10678 10679 10679 10680 10680 10680 10680 10680 10680 10680 10682 10684 10685 10686 10687 10689 10692 10694 10696 10698 10700 10703 10704 10706 10709 10708 10705 10701 10699 10699 10701 10702 10703 10704 10704 10705 10705 10706 10707 10707 10705 10703 10700 10699 10698 10698 10699 10701 10704 10706 10709 10711 10713 10715
10669 10668 10667 10667 10668 10669 10670 10671 10672 10673 10674 10674 10674 10674 10675 10675 10675 10675 10677 10678 10680 10681 10682 10684 10686 10688 10690 10692 10694 10696 10697 10699 10702 10703 10701 10698 10696 10696 10696 10696 10698 10698 10698 10698 10698 10698 10699 10700 10699 10697 10695 10694 10693 10693 10694 10696 10698 10701 10703 10706 10708 10710
10661 10661 10661 10661 10662 10664 10665 10666 10667 10667 10667 10668 10668 10668 10668 10669 10669 10670 10672 10674 10675 10676 10677 10679 10680 10682 10684 10686 10688 10689 10690 10691 10695 10697 10696 10695 10693 10693 10692 10692 10693 10693 10692 10692 10691 10691 10691 10691 10692 10691 10690 10688 10688 10689 10690 10691 10693 10695 10698 10700 10703 10705
10654 10654 10654 10655 10657 10659 10660 10661 10662 10662 10662 10662 10662 10661 10662 10663 10664 10666 10668 10669 10670 10671 10672 10673 10674 10676 10679 10680 10681 10682 10683 10685 10687 10689 10690 10690 10689 10688 10688 10688 10688 10688 10686 10685 10684 10684 10684 10684 10684 10684 10684 10684 10683 10684 10685 10687 10688 10690 10693 10695 10698 10700
10647 10648 10648 10650 10652 10653 10655 10658 10658 10655 10655 10655 10656 10657 10659 10660 10661 10662 10664 10664 10665 10666 10667 10668 10669 10670 10673 10675 10675 10676 10677 10679 10680 10682 10683 10683 10683 10683 10683 10683 10683 10682 10680 10678 10677 10678 10678 10677 10677 10677 10678 10678 10679 10679 10680 10682 10684 10686 10688 10690 10693 10695
10641 10642 10643 10645 10646 10648 10651 10654 10652 10648 10649 10650 10653 10655 10656 10657 10658 10659 10660 10660 10660 10661 10662 10663 10664 10665 10667 10669 10670 10670 10671 10673 10675 10676 10677 10677 10678 10678 10678 10678 10677 10675 10673 10671 10671 10671 10671 10671 10671 10671 10671 10672 10673 10675 10676 10678 10680 10681 10683 10686 10688 10690
10637 10637 10638 10640 10642 10644 10646 10648 10647 10645 10647 10649 10650 10651 10652 10653 10654 10655 10656 10656 10656 10657 10658 10659 10660 10661 10662 10664 10665 10666 10667 10669 10670 10671 10671 10672 10672 10673 10673 10672 10670 10669 10666 10665 10664 10664 10664 10664 10665 10665 10666 10666 10669 10671 10672 10674 10675 10677 10678 10680 10683 10685
10636 10635 10635 10636 10638 10640 10642 10643 10644 10644 10645 10646 10647 10648 10649 10649 10650 10651 10653 10653 10653 10653 10654 10655 10656 10657 10658 10659 10660 10662 10664 10665 10666 10666 10667 10667 10667 10668 10668 10666 10664 10663 10661 10659 10658 10658 10658 10659 10659 10660 10661 10662 10664 10666 10668 10669 10671 10672 10674 10676 10678 10680
10634 10633 10633 10634 10635 10637 10638 10639 10640 10641 10642 10644 10644 10645 10645 10646 10646 10648 10649 10649 10650 10650 10651 10652 10653 10654 10655 10656 10657 10658 10659 10661 10661 10662 10662 10662 10662 10662 10661 10660 10658 10657 10656 10654 10653 10653 10654 10654 10654 10655 10656 10658 10659 10661 10663 10665 10667 10668 10670 10672 10673 10675
10632 10631 10630 10631 10632 10633 10635 10636 10637 10638 10639 10641 10642 10642 10643 10643 10644 10644 10645 10646 10647 10647 10648 10649 10650 10652 10652 10652 10653 10654 10655 10656 10657 10657 10657 10657 10657 10656 10655 10654 10653 10652 10650 10649 10649 10649 10651 10651 10650 10650 10651 10653 10655 10657 10659 10661 10663 10664 10666 10667 10669 10671
10629 10628 10628 10629 10630 10631 10633 10634 10635 10636 10637 10638 10639 10640 10640 10641 10641 10641 10641 10642 10643 10644 10646 10647 10648 10648 10649 10649 10649 10649 10650 10651 10651 10652 10652 10652 10652 10651 10650 10648 10648 10647 10646 10645 10645 10645 10648 10647 10646 10647 10647 10648 10650 10652 10654 10656 10658 10660 10662 10663 10664 10666
10627 10626 10627 10627 10627 10629 10631 10632 10633 10634 10635 10636 10637 10638 10638 10639 10639 10639 10639 10640 10641 10642 10643 10644 10645 10645 10646 10646 10645 10645 10646 10646 10647 10647 10647 10647 10647 10646 10644 10643 10643 10643 10642 10642 10642 10642 10644 10644 10644 10645 10644 10644 10646 10648 10650 10652 10653 10655 10657 10658 10660 10661
10624 10624 10625 10625 10626 10627 10628 10630 10631 10632 10633 10634 10635 10635 10635 10635 10636 10636 10637 10637 10638 10639 10641 10641 10642 10642 10642 10643 10643 10642 10642 10642 10642 10642 10642 10642 10641 10640 10639 10639 10638 10638 10638 10639 10639 10639 10640 10639 10641 10643 10641 10640 10641 10643 10645 10647 10648 10650 10651 10653 10655 10657
10621 10622 10622 10623 10624 10625 10626 10627 10628 10628 10629 10630 10631 10631 10631 10631 10632 10632 10633 10634 10635 10636 10637 10638 10638 10638 10638 10638 10638 10638 10638 10638 10637 10637 10636 10636 10636 10635 10634 10634 10634 10634 10634 10634 10634 10634 10635 10635 10635 10637 10638 10636 10636 10638 10640 10642 10643 10644 10645 10647 10649 10651
10618 10618 10619 10620 10621 10622 10623 10624 10624 10625 10625 10626 10626 10627 10627 10627 10627 10628 10629 10630 10630 10631 10632 10633 10633 10633 10633 10633 10633 10633 10633 10632 10632 10631 10631 10630 10630 10629 10629 10629 10629 10629 10630 10629 10630 10630 10630 10630 10629 10630 10631 10632 10632 10633 10635 10636 10637 10638 10639 10641 10644 10646
10614 10615 10616 10616 10617 10617 10618 10619 10620 10621 10621 10622 10622 10622 10623 10623 10623 10623 10624 10625 10625 10626 10627 10627 10627 10627 10627 10627 10628 10628 10628 10627 10627 10627 10626 10625 10624 10624 10625 10625 10624 10624 10625 10625 10625 10625 10625 10625 10625 10625 10625 10626 10627 10628 10629 10630 10631 10632 10634 10636 10638 10640
10611 10611 10612 10612 10612 10613 10613 10614 10615 10616 10616 10617 10617 10617 10618 10618 10619 10619 10619 10620 10620 10621 10621 10621 10622 10622 10622 10622 10622 10623 10623 10623 10623 10623 10622 10622 10620 10620 10620 10620 10620 10620 10620 10620 10620 10621 10621 10621 10621 10621 10621 10621 10622 10623 10624 10625 10626 10627 10629 10630 10632 10634
10607 10607 10607 10607 10607 10608 10608 10609 10610 10610 10611 10612 10612 10613 10613 10614 10614 10614 10614 10615 10615 10615 10616 10616 10617 10617 10617 10617 10617 10617 10618 10618 10618 10618 10618 10618 10617 10616 10616 10615 10615 10616 10616 10616 10616 10616 10616 10616 10616 10617 10617 10617 10618 10619 10619 10620 10621 10622 10622 10624 10625 10627
10603 10602 10602 10602 10602 10603 10603 10604 10604 10605 10606 10607 10607 10608 10609 10609 10609 10609 10609 10610 10610 10610 10610 10611 10611 10612 10612 10612 10612 10612 10612 10612 10612 10613 10613 10613 10613 10613 10612 10611 10611 10611 10611 10612 10612 10612 10612 10612 10612 10613 10613 10613 10614 10615 10616 10616 10616 10616 10616 10617 10619 10621
10599 10598 10597 10597 10597 10597 10598 10598 10599 10600 10601 10602 10603 10603 10604 10604 10604 10604 10605 10605 10605 10605 10605 10605 10606 10606 10607 10607 10607 10607 10607 10607 10607 10607 10607 10607 10608 10609 10609 10608 10607 10607 10608 10608 10609 10609 10609 10609 10609 10609 10609 10610 10610 10611 10612 10612 10612 10612 10612 10613 10615 10617
10595 10594 10594 10593 10592 10592 10592 10593 10594 10595 10596 10597 10598 10599 10599 10600 10600 10601 10601 10601 10601 10601 10601 10600 10601 10601 10602 10602 10602 10602 10602 10602 10602 10601 10601 10601 10602 10602 10603 10604 10604 10604 10604 10605 10605 10606 10606 10606 10606 10606 10606 10606 10607 10607 10608 10608 10608 10608 10609 10610 10611 10613
10593 10591 10590 10590 10589 10589 10589 10589 10589 10589 10590 10590 10592 10593 10593 10594 10595 10596 10597 10596 10596 10597 10597 10596 10596 10597 10597 10597 10597 10597 10597 10597 10596 10596 10596 10596 10596 10597 10597 10598 10598 10599 10600 10601 10602 10602 10603 10603 10603 10603 10603 10603 10604 10604 10604 10605 10605 10604 10605 10606 10607 10609
10588 10586 10585 10585 10585 10585 10584 10584 10583 10583 10582 10583 10584 10585 10586 10587 10589 10591 10592 10592 10592 10592 10592 10592 10592 10592 10592 10593 10592 10592 10592 10592 10592 10592 10592 10592 10592 10592 10593 10593 10594 10595 10595 10597 10598 10599 10599 10600 10600 10600 10600 10600 10600 10601 10601 10601 10601 10602 10602 10602 10603 10605
10581 10580 10580 10579 10577 10576 10576 10576 10576 10575 10575 10576 10577 10577 10579 10581 10582 10585 10587 10588 10588 10587 10587 10587 10587 10587 10587 10587 10588 10588 10588 10588 10587 10587 10588 10588 10589 10589 10589 10590 10590 10591 10592 10592 10593 10594 10595 10596 10597 10597 10597 10597 10597 10597 10597 10598 10598 10599 10599 10599 10600 10601
10575 10574 10573 10571 10569 10569 10569 10570 10570 10569 10569 10570 10571 10571 10572 10574 10575 10577 10580 10582 10582 10582 10582 10581 10581 10581 10582 10582 10582 10582 10583 10583 10583 10584 10584 10584 10585 10585 10586 10586 10586 10587 10588 10589 10589 10590 10591 10592 10593 10593 10594 10594 10594 10594 10594 10594 10594 10595 10595 10596 10596 10597
10567 10565 10564 10563 10563 10563 10563 10564 10564 10564 10564 10565 10565 10566 10566 10566 10567 10570 10572 10574 10575 10576 10576 10576 10575 10576 10576 10577 10577 10577 10578 10579 10579 10580 10581 10581 10582 10582 10582 10582 10583 10583 10584 10585 10585 10586 10587 10588 10588 10589 10589 10590 10590 10590 10590 10590 10590 10591 10591 10592 10592 10593
10556 10554 10554 10556 10557 10556 10557 10559 10559 10559 10560 10560 10560 10561 10561 10560 10560 10562 10565 10567 10569 10570 10571 10570 10570 10569 10570 10571 10571 10572 10572 10573 10574 10576 10577 10578 10578 10578 10578 10579 10579 10579 10580 10581 10582 10582 10583 10583 10584 10584 10585 10585 10585 10586 10586 10586 10586 10586 10587 10587 10588 10589
10549 10547 10548 10551 10551 10550 10552 10553 10554 10555 10555 10555 10556 10556 10556 10555 10555 10556 10558 10561 10562 10564 10565 10564 10564 10564 10565 10565 10566 10566 10567 10567 10569 10570 10571 10572 10573 10574 10574 10574 10575 10575 10576 10577 10577 10578 10578 10579 10579 10580 10580 10580 10581 10581 10581 10582 10582 10582 10583 10583 10584 10584